CST,Max TemperatureF,Mean TemperatureF,Min TemperatureF,Max Dew PointF,MeanDew PointF,Min DewpointF,Max Humidity, Mean Humidity, Min Humidity, Max Sea Level PressureIn, Mean Sea Level PressureIn, Min Sea Level PressureIn, Max VisibilityMiles, Mean VisibilityMiles, Min VisibilityMiles, Max Wind SpeedMPH, Mean Wind SpeedMPH, Max Gust SpeedMPH,PrecipitationIn, CloudCover, Events, WindDirDegrees
2013-11-1,66,55,44,45,40,37,87,64,35,30.00,29.86,29.76,10,10,10,14,5,16,0.00,0,,269
2013-11-2,55,46,35,39,35,30,87,66,44,30.21,30.14,30.00,10,10,10,14,6,20,0.00,1,,315
2013-11-3,60,46,33,39,35,30,87,64,39,30.21,30.13,30.02,10,10,9,20,6,28,0.00,0,,157
2013-11-4,57,54,51,50,43,37,88,67,58,30.16,30.08,30.02,10,10,10,17,10,23,0.00,7,,172
2013-11-5,62,58,53,57,54,50,94,86,77,30.15,30.05,29.95,10,9,3,15,8,20,0.58,7,,158
2013-11-6,62,48,35,59,39,30,88,80,66,30.35,30.16,29.89,10,9,1,15,8,24,0.40,6,,328
2013-11-7,60,44,28,39,32,27,93,69,31,30.44,30.37,30.33,10,9,1,10,1,,0.00,0,,297
2013-11-8,62,48,35,37,35,30,93,59,32,30.35,30.21,30.08,10,10,10,17,6,25,0.00,0,,180
2013-11-9,62,52,42,43,39,36,82,59,42,30.27,30.17,30.10,10,10,10,12,6,16,0.00,4,,206
2013-11-10,66,56,46,45,40,37,87,59,37,30.37,30.30,30.26,10,10,5,13,2,17,0.00,2,,107
2013-11-11,66,54,42,50,44,36,82,68,52,30.40,30.25,30.18,10,9,0,22,5,29,0.00,7,,227
2013-11-12,41,32,24,36,18,10,81,58,33,30.71,30.63,30.42,10,10,10,21,14,26,0.00,2,,18
2013-11-13,48,34,21,19,17,12,86,52,30,30.66,30.51,30.30,10,10,10,12,5,,0.00,0,,186
2013-11-14,53,40,26,30,21,18,69,45,26,30.30,30.15,30.03,10,10,10,15,8,22,0.00,1,,189
2013-11-15,57,50,42,46,40,30,82,70,57,30.04,29.94,29.85,10,10,10,14,7,17,0.05,6,,170
2013-11-16,69,61,53,63,55,46,88,76,60,29.86,29.73,29.63,10,10,9,24,15,32,0.00,5,,185
2013-11-17,71,61,51,63,43,19,78,48,24,30.09,29.78,29.57,10,10,10,26,16,33,0.00,3,,271
2013-11-18,60,48,37,36,27,19,70,43,20,30.26,30.21,30.06,10,10,10,15,7,21,0.00,0,,44
2013-11-19,60,51,42,28,22,14,50,34,23,30.24,30.16,30.05,10,10,8,17,8,21,0.00,3,,127
2013-11-20,59,50,42,37,25,10,53,35,20,30.05,29.98,29.91,10,10,9,20,10,26,0.02,5,,157
2013-11-21,57,50,42,48,45,36,93,83,44,30.26,30.07,29.98,10,6,0,14,7,22,0.66,8,,88
2013-11-22,41,36,30,37,29,27,93,84,80,30.49,30.42,30.27,10,8,1,17,13,23,0.00,8,,8
2013-11-23,37,30,23,27,20,9,86,62,41,30.63,30.57,30.48,10,10,10,18,12,24,0.00,4,,22
2013-11-24,30,24,19,16,11,9,74,55,44,30.63,30.51,30.31,10,10,10,13,9,18,0.00,3,,81
2013-11-25,35,32,30,28,22,12,81,64,41,30.30,30.22,30.15,10,10,9,9,5,,0.00,8,,215
2013-11-26,44,35,26,28,24,12,75,64,43,30.31,30.17,30.11,10,10,10,22,8,29,0.00,3,,354
2013-11-27,35,27,19,12,10,9,68,51,33,30.40,30.32,30.27,10,10,10,17,9,23,0.00,0,,335
2013-11-28,51,37,23,27,19,10,80,52,34,30.43,30.32,30.25,10,10,10,15,6,21,0.00,0,,214
2013-11-29,55,40,24,28,22,16,86,55,26,30.49,30.40,30.30,10,10,10,12,3,,0.00,0,,172
2013-11-30,57,46,35,41,34,21,87,63,51,30.32,30.20,30.12,10,10,10,16,8,23,0.00,0,,191